Location: Mascot Post Office (historical)
(40.2645°N, 99.5462°W)
Time: 10:38:39
(UTC+00:00)

NOSS 3-4 (C) - Pass Details

Date: 20 October 2020
Orbit: 886 x 1326 km, 63.4° (Epoch: 06 November)

Event Time Altitude Azimuth Distance (km) Brightness Sun altitude
Rises 02:59:42 0° 331° (NNW) 3,786 7.2 -36.3°
Reaches altitude 10° 03:02:47 10° 344° (NNW) 2,903 6.3 -36.8°
Enters shadow 03:05:33 20° 5° (N) 2,314 5.5 -37.3°
